Time,TemperatureF,DewpointF,PressureIn,WindDirection,WindDirectionDegrees,WindSpeedMPH,WindSpeedGustMPH,Humidity,HourlyPrecipIn,Conditions,Clouds,dailyrainin,SoftwareType,DateUTC
2013-05-19 00:02:00,65.2,61.3,29.83,WSW,247,11.1,18.4,87,0.00,,,-99.99,Meteorologica,2013-05-19 05:02:00,
2013-05-19 00:07:00,65.3,61.1,29.84,West,269,8.8,19.3,86,0.00,,,-99.99,Meteorologica,2013-05-19 05:07:00,
2013-05-19 00:12:00,65.4,61.5,29.86,West,267,9.1,15.6,87,0.00,,,-99.99,Meteorologica,2013-05-19 05:12:00,
2013-05-19 00:17:00,65.3,61.7,29.87,WNW,303,6.2,14.3,88,0.00,,,-99.99,Meteorologica,2013-05-19 05:17:00,
2013-05-19 00:22:00,65.2,62.0,29.88,WNW,295,6.6,13.1,89,0.00,,,-99.99,Meteorologica,2013-05-19 05:22:00,
2013-05-19 00:27:00,64.9,61.9,29.89,West,261,3.0,10.4,90,0.00,,,-99.99,Meteorologica,2013-05-19 05:27:00,
2013-05-19 00:32:00,64.5,61.6,29.88,WSW,251,0.0,8.1,90,0.00,,,-99.99,Meteorologica,2013-05-19 05:32:00,
2013-05-19 00:37:00,64.4,61.7,29.87,SSW,194,4.9,7.8,91,0.00,,,-99.99,Meteorologica,2013-05-19 05:37:00,
2013-05-19 00:42:00,64.2,61.6,29.87,SSE,165,2.5,6.0,91,0.00,,,-99.99,Meteorologica,2013-05-19 05:42:00,
2013-05-19 00:47:00,64.0,61.5,29.83,SSE,165,0.0,0.0,91,0.00,,,-99.99,Meteorologica,2013-05-19 05:47:00,
2013-05-19 00:52:00,63.9,61.4,29.83,SSE,165,0.0,0.0,91,0.00,,,-99.99,Meteorologica,2013-05-19 05:52:00,
2013-05-19 00:57:00,63.9,61.6,29.80,SSE,165,0.0,0.0,92,0.00,,,-99.99,Meteorologica,2013-05-19 05:57:00,
2013-05-19 01:02:00,63.8,61.6,29.78,SSE,165,0.0,0.0,92,0.00,,,-99.99,Meteorologica,2013-05-19 06:02:00,
2013-05-19 01:07:00,63.8,61.5,29.78,ESE,114,0.0,0.0,92,0.00,,,-99.99,Meteorologica,2013-05-19 06:07:00,
2013-05-19 01:12:00,63.9,61.6,29.80,SSE,165,2.3,6.9,92,0.00,,,-99.99,Meteorologica,2013-05-19 06:12:00,
2013-05-19 01:17:00,63.8,61.4,29.80,ESE,121,1.7,7.4,92,0.00,,,-99.99,Meteorologica,2013-05-19 06:17:00,
2013-05-19 01:22:00,63.8,61.4,29.77,East,79,0.0,0.0,92,0.00,,,-99.99,Meteorologica,2013-05-19 06:22:00,
2013-05-19 01:27:00,63.9,61.6,29.75,East,79,0.0,0.0,92,0.00,,,-99.99,Meteorologica,2013-05-19 06:27:00,
2013-05-19 01:32:00,63.9,61.6,29.75,East,79,0.0,0.0,92,0.00,,,-99.99,Meteorologica,2013-05-19 06:32:00,
2013-05-19 01:37:00,63.9,61.6,29.73,East,79,0.0,0.0,92,0.00,,,-99.99,Meteorologica,2013-05-19 06:37:00,
2013-05-19 01:42:00,63.6,61.4,29.72,North,5,2.8,4.4,92,0.00,,,-99.99,Meteorologica,2013-05-19 06:42:00,
2013-05-19 01:47:00,63.6,61.4,29.70,North,357,3.7,5.0,92,0.00,,,-99.99,Meteorologica,2013-05-19 06:47:00,
2013-05-19 01:52:00,63.5,61.3,29.67,NNW,347,4.7,6.8,92,0.00,,,-99.99,Meteorologica,2013-05-19 06:52:00,
2013-05-19 01:57:00,63.4,61.2,29.67,NNE,18,4.3,7.0,92,0.00,,,-99.99,Meteorologica,2013-05-19 06:57:00,
2013-05-19 02:02:00,63.5,61.2,29.68,North,350,0.0,2.0,92,0.00,,,-99.99,Meteorologica,2013-05-19 07:02:00,
2013-05-19 02:07:00,63.5,61.2,29.68,North,4,0.0,0.0,92,0.00,,,-99.99,Meteorologica,2013-05-19 07:07:00,
2013-05-19 02:12:00,63.5,61.3,29.67,North,4,0.0,0.0,92,0.00,,,-99.99,Meteorologica,2013-05-19 07:12:00,
2013-05-19 02:17:00,63.5,61.2,29.67,North,4,0.0,0.0,92,0.00,,,-99.99,Meteorologica,2013-05-19 07:17:00,
2013-05-19 02:22:00,63.5,61.2,29.67,North,4,0.0,0.0,92,0.00,,,-99.99,Meteorologica,2013-05-19 07:22:00,
2013-05-19 02:27:00,63.5,61.2,29.68,North,4,0.0,0.0,92,0.00,,,-99.99,Meteorologica,2013-05-19 07:27:00,
2013-05-19 02:32:00,63.6,61.3,29.69,North,4,0.0,0.0,92,0.00,,,-99.99,Meteorologica,2013-05-19 07:32:00,
2013-05-19 02:37:00,63.5,61.2,29.69,North,4,0.0,0.0,92,0.00,,,-99.99,Meteorologica,2013-05-19 07:37:00,
2013-05-19 02:42:00,63.5,61.2,29.70,North,4,0.0,0.0,92,0.00,,,-99.99,Meteorologica,2013-05-19 07:42:00,
2013-05-19 02:47:00,63.5,61.2,29.72,North,4,0.0,0.0,92,0.00,,,-99.99,Meteorologica,2013-05-19 07:47:00,
2013-05-19 02:52:00,63.5,61.3,29.72,North,4,0.0,0.0,92,0.00,,,-99.99,Meteorologica,2013-05-19 07:52:00,
2013-05-19 02:57:00,63.5,61.3,29.72,North,4,0.0,0.0,92,0.00,,,-99.99,Meteorologica,2013-05-19 07:57:00,
2013-05-19 03:02:00,63.6,61.4,29.73,North,4,0.0,0.0,92,0.00,,,-99.99,Meteorologica,2013-05-19 08:02:00,
2013-05-19 03:07:00,63.5,61.3,29.73,ESE,103,0.0,4.5,92,0.00,,,-99.99,Meteorologica,2013-05-19 08:07:00,
2013-05-19 03:12:00,63.4,61.1,29.73,ESE,103,0.0,0.0,92,0.00,,,-99.99,Meteorologica,2013-05-19 08:12:00,
2013-05-19 03:17:00,63.3,61.1,29.73,SW,218,0.0,7.3,92,0.00,,,-99.99,Meteorologica,2013-05-19 08:17:00,
2013-05-19 03:22:00,63.3,60.9,29.72,SSE,160,0.0,5.0,92,0.00,,,-99.99,Meteorologica,2013-05-19 08:22:00,
2013-05-19 03:27:00,63.4,60.9,29.73,ENE,77,0.0,4.7,91,0.00,,,-99.99,Meteorologica,2013-05-19 08:27:00,
2013-05-19 03:32:00,63.5,60.9,29.72,ENE,77,0.0,0.0,91,0.00,,,-99.99,Meteorologica,2013-05-19 08:32:00,
2013-05-19 03:37:00,63.6,60.9,29.72,ENE,77,0.0,0.0,91,0.00,,,-99.99,Meteorologica,2013-05-19 08:37:00,
2013-05-19 03:42:00,63.7,61.0,29.71,ENE,77,0.0,0.0,90,0.00,,,-99.99,Meteorologica,2013-05-19 08:42:00,
2013-05-19 03:47:00,63.8,60.7,29.71,East,94,0.4,5.2,90,0.00,,,-99.99,Meteorologica,2013-05-19 08:47:00,
2013-05-19 03:52:00,64.3,60.7,29.71,East,94,0.0,0.0,88,0.00,,,-99.99,Meteorologica,2013-05-19 08:52:00,
2013-05-19 03:57:00,64.6,60.9,29.71,SE,139,0.0,0.0,87,0.00,,,-99.99,Meteorologica,2013-05-19 08:57:00,
2013-05-19 04:02:00,64.7,60.5,29.74,West,272,3.2,6.6,86,0.00,,,-99.99,Meteorologica,2013-05-19 09:02:00,
2013-05-19 04:07:00,64.9,60.9,29.76,West,275,2.9,6.6,86,0.00,,,-99.99,Meteorologica,2013-05-19 09:07:00,
2013-05-19 04:12:00,64.9,60.9,29.75,West,265,0.0,0.0,87,0.00,,,-99.99,Meteorologica,2013-05-19 09:12:00,
2013-05-19 04:17:00,65.0,61.3,29.74,West,265,0.0,0.0,87,0.00,,,-99.99,Meteorologica,2013-05-19 09:17:00,
2013-05-19 04:22:00,64.7,61.3,29.72,West,265,0.0,0.0,88,0.00,,,-99.99,Meteorologica,2013-05-19 09:22:00,
2013-05-19 04:27:00,64.7,61.0,29.72,West,265,0.0,0.0,87,0.00,,,-99.99,Meteorologica,2013-05-19 09:27:00,
2013-05-19 04:32:00,64.7,60.6,29.72,East,84,2.3,4.9,86,0.00,,,-99.99,Meteorologica,2013-05-19 09:32:00,
2013-05-19 04:37:00,64.9,61.1,29.70,ENE,66,2.1,5.1,87,0.00,,,-99.99,Meteorologica,2013-05-19 09:37:00,
2013-05-19 04:42:00,64.9,61.0,29.70,South,179,0.3,2.9,87,0.00,,,-99.99,Meteorologica,2013-05-19 09:42:00,
2013-05-19 04:47:00,65.0,61.0,29.69,NNE,15,0.0,5.1,87,0.00,,,-99.99,Meteorologica,2013-05-19 09:47:00,
2013-05-19 04:52:00,64.9,60.7,29.69,NNE,15,0.0,0.0,86,0.00,,,-99.99,Meteorologica,2013-05-19 09:52:00,
2013-05-19 04:57:00,64.9,61.0,29.68,NNE,15,0.0,0.0,87,0.00,,,-99.99,Meteorologica,2013-05-19 09:57:00,
2013-05-19 05:02:00,64.9,61.0,29.68,NNE,18,0.0,3.2,87,0.00,,,-99.99,Meteorologica,2013-05-19 10:02:00,
2013-05-19 05:07:00,64.8,61.0,29.67,SSE,149,0.0,5.9,87,0.00,,,-99.99,Meteorologica,2013-05-19 10:07:00,
2013-05-19 05:12:00,64.8,61.1,29.67,SSE,149,0.0,0.0,87,0.00,,,-99.99,Meteorologica,2013-05-19 10:12:00,
2013-05-19 05:17:00,64.7,61.2,29.67,ESE,107,3.2,5.3,88,0.00,,,-99.99,Meteorologica,2013-05-19 10:17:00,
2013-05-19 05:22:00,64.4,60.9,29.67,ESE,107,0.0,0.0,88,0.00,,,-99.99,Meteorologica,2013-05-19 10:22:00,
2013-05-19 05:27:00,64.3,60.8,29.66,ESE,107,0.0,0.0,88,0.00,,,-99.99,Meteorologica,2013-05-19 10:27:00,
2013-05-19 05:32:00,64.3,61.0,29.66,ESE,107,0.0,0.0,89,0.00,,,-99.99,Meteorologica,2013-05-19 10:32:00,
2013-05-19 05:37:00,64.2,61.0,29.65,ESE,107,0.0,0.0,89,0.00,,,-99.99,Meteorologica,2013-05-19 10:37:00,
2013-05-19 05:42:00,64.1,61.1,29.64,ESE,107,0.0,0.0,89,0.00,,,-99.99,Meteorologica,2013-05-19 10:42:00,
2013-05-19 05:47:00,64.0,61.0,29.63,ESE,107,0.0,3.0,90,0.00,,,-99.99,Meteorologica,2013-05-19 10:47:00,
2013-05-19 05:52:00,63.9,60.9,29.62,ESE,107,0.0,0.0,90,0.00,,,-99.99,Meteorologica,2013-05-19 10:52:00,
2013-05-19 05:57:00,64.0,61.0,29.62,ESE,107,0.4,2.6,90,0.00,,,-99.99,Meteorologica,2013-05-19 10:57:00,
2013-05-19 06:02:00,64.0,60.9,29.64,ESE,121,0.0,2.8,89,0.00,,,-99.99,Meteorologica,2013-05-19 11:02:00,
2013-05-19 06:07:00,64.0,60.9,29.66,SSE,159,2.3,5.6,89,0.00,,,-99.99,Meteorologica,2013-05-19 11:07:00,
2013-05-19 06:12:00,64.0,60.9,29.66,NE,45,0.2,3.2,89,0.00,,,-99.99,Meteorologica,2013-05-19 11:12:00,
2013-05-19 06:17:00,64.0,61.0,29.66,SE,127,3.9,8.1,89,0.00,,,-99.99,Meteorologica,2013-05-19 11:17:00,
2013-05-19 06:22:00,64.1,61.0,29.67,SSW,192,4.2,8.5,89,0.00,,,-99.99,Meteorologica,2013-05-19 11:22:00,
2013-05-19 06:27:00,64.4,60.9,29.67,ESE,111,5.6,13.9,88,0.00,,,-99.99,Meteorologica,2013-05-19 11:27:00,
2013-05-19 06:32:00,64.7,61.0,29.67,SSE,151,3.1,6.6,87,0.00,,,-99.99,Meteorologica,2013-05-19 11:32:00,
2013-05-19 06:37:00,65.0,61.2,29.66,East,88,3.9,6.5,87,0.00,,,-99.99,Meteorologica,2013-05-19 11:37:00,
2013-05-19 06:42:00,65.3,61.1,29.65,SW,218,6.0,9.5,86,0.00,,,-99.99,Meteorologica,2013-05-19 11:42:00,
2013-05-19 06:47:00,65.7,61.4,29.66,SSE,166,0.1,6.1,86,0.00,,,-99.99,Meteorologica,2013-05-19 11:47:00,
2013-05-19 06:52:00,65.9,61.6,29.66,South,175,5.4,7.4,85,0.00,,,-99.99,Meteorologica,2013-05-19 11:52:00,
2013-05-19 06:57:00,66.0,61.7,29.66,ESE,121,3.7,9.4,86,0.00,,,-99.99,Meteorologica,2013-05-19 11:57:00,
2013-05-19 07:02:00,65.9,61.6,29.66,SW,217,2.4,7.2,85,0.00,,,-99.99,Meteorologica,2013-05-19 12:02:00,
2013-05-19 07:07:00,66.1,61.6,29.66,South,172,4.2,8.6,85,0.00,,,-99.99,Meteorologica,2013-05-19 12:07:00,
2013-05-19 07:12:00,66.2,61.7,29.66,SE,145,2.2,7.1,85,0.00,,,-99.99,Meteorologica,2013-05-19 12:12:00,
2013-05-19 07:17:00,66.2,61.7,29.66,SW,221,0.0,4.7,85,0.00,,,-99.99,Meteorologica,2013-05-19 12:17:00,
2013-05-19 07:22:00,66.2,61.6,29.65,SSE,148,0.8,2.9,85,0.00,,,-99.99,Meteorologica,2013-05-19 12:22:00,
2013-05-19 07:27:00,66.2,61.9,29.65,SSE,166,1.4,5.8,85,0.00,,,-99.99,Meteorologica,2013-05-19 12:27:00,
2013-05-19 07:32:00,66.2,62.0,29.65,ESE,119,0.0,1.7,86,0.00,,,-99.99,Meteorologica,2013-05-19 12:32:00,
2013-05-19 07:37:00,66.2,61.9,29.65,SSW,197,1.3,6.0,86,0.00,,,-99.99,Meteorologica,2013-05-19 12:37:00,
2013-05-19 07:42:00,66.2,62.0,29.65,SSW,210,0.0,3.3,86,0.00,,,-99.99,Meteorologica,2013-05-19 12:42:00,
2013-05-19 07:47:00,66.3,62.1,29.65,WNW,297,0.0,4.8,86,0.00,,,-99.99,Meteorologica,2013-05-19 12:47:00,
2013-05-19 07:52:00,66.4,62.3,29.65,WNW,297,0.0,0.0,86,0.00,,,-99.99,Meteorologica,2013-05-19 12:52:00,
2013-05-19 07:57:00,66.5,62.4,29.64,WNW,297,0.0,0.0,86,0.00,,,-99.99,Meteorologica,2013-05-19 12:57:00,
2013-05-19 08:02:00,66.7,62.5,29.65,WNW,297,0.0,0.0,86,0.00,,,-99.99,Meteorologica,2013-05-19 13:02:00,
2013-05-19 08:07:00,66.9,62.8,29.65,WNW,297,0.0,0.0,86,0.00,,,-99.99,Meteorologica,2013-05-19 13:07:00,
2013-05-19 08:12:00,66.9,62.9,29.65,WNW,297,0.0,0.0,86,0.00,,,-99.99,Meteorologica,2013-05-19 13:12:00,
2013-05-19 08:17:00,67.2,63.1,29.65,WNW,282,0.0,3.3,86,0.00,,,-99.99,Meteorologica,2013-05-19 13:17:00,
2013-05-19 08:22:00,67.5,63.5,29.63,WNW,282,0.0,0.0,87,0.00,,,-99.99,Meteorologica,2013-05-19 13:22:00,
2013-05-19 08:27:00,67.3,63.2,29.64,WNW,282,0.0,0.0,86,0.00,,,-99.99,Meteorologica,2013-05-19 13:27:00,
2013-05-19 08:32:00,67.3,63.4,29.65,WNW,282,0.0,0.0,87,0.00,,,-99.99,Meteorologica,2013-05-19 13:32:00,
2013-05-19 08:37:00,67.3,63.2,29.65,WNW,282,0.0,0.0,86,0.00,,,-99.99,Meteorologica,2013-05-19 13:37:00,
2013-05-19 08:42:00,67.4,63.3,29.65,WNW,282,0.0,0.0,86,0.00,,,-99.99,Meteorologica,2013-05-19 13:42:00,
2013-05-19 08:47:00,67.7,63.6,29.65,WNW,282,0.0,0.0,86,0.00,,,-99.99,Meteorologica,2013-05-19 13:47:00,
2013-05-19 08:52:00,67.9,63.8,29.64,WNW,282,0.0,0.0,86,0.00,,,-99.99,Meteorologica,2013-05-19 13:52:00,
2013-05-19 08:57:00,68.2,63.9,29.64,WNW,282,0.0,0.0,86,0.00,,,-99.99,Meteorologica,2013-05-19 13:57:00,
2013-05-19 09:02:00,68.4,63.4,29.63,WNW,282,0.0,0.0,84,0.00,,,-99.99,Meteorologica,2013-05-19 14:02:00,
2013-05-19 09:07:00,68.5,63.6,29.64,WNW,282,0.0,0.0,84,0.00,,,-99.99,Meteorologica,2013-05-19 14:07:00,
2013-05-19 09:12:00,68.8,62.9,29.64,WNW,282,0.0,0.0,81,0.00,,,-99.99,Meteorologica,2013-05-19 14:12:00,
2013-05-19 09:17:00,69.2,63.2,29.64,WNW,282,0.0,0.0,81,0.00,,,-99.99,Meteorologica,2013-05-19 14:17:00,
2013-05-19 09:22:00,69.6,63.2,29.65,SSE,148,0.0,3.0,79,0.00,,,-99.99,Meteorologica,2013-05-19 14:22:00,
2013-05-19 09:27:00,70.0,62.2,29.65,South,171,3.1,7.1,75,0.00,,,-99.99,Meteorologica,2013-05-19 14:27:00,
2013-05-19 09:32:00,70.4,62.3,29.65,East,87,3.6,8.6,75,0.00,,,-99.99,Meteorologica,2013-05-19 14:32:00,
2013-05-19 09:37:00,70.5,62.6,29.65,South,170,4.3,7.4,75,0.00,,,-99.99,Meteorologica,2013-05-19 14:37:00,
2013-05-19 09:42:00,70.5,63.2,29.65,SW,228,2.2,6.1,77,0.00,,,-99.99,Meteorologica,2013-05-19 14:42:00,
2013-05-19 09:47:00,70.5,62.8,29.65,SSE,149,2.0,7.6,76,0.00,,,-99.99,Meteorologica,2013-05-19 14:47:00,
2013-05-19 09:52:00,70.6,63.2,29.65,ESE,121,0.3,5.6,77,0.00,,,-99.99,Meteorologica,2013-05-19 14:52:00,
2013-05-19 09:57:00,70.7,63.1,29.65,SE,125,1.0,6.0,76,0.00,,,-99.99,Meteorologica,2013-05-19 14:57:00,
2013-05-19 10:02:00,70.9,63.2,29.65,East,98,2.6,6.1,76,0.00,,,-99.99,Meteorologica,2013-05-19 15:02:00,
2013-05-19 10:07:00,71.1,63.2,29.65,SW,221,3.8,5.9,75,0.00,,,-99.99,Meteorologica,2013-05-19 15:07:00,
2013-05-19 10:12:00,71.3,63.1,29.65,South,189,3.8,7.3,74,0.00,,,-99.99,Meteorologica,2013-05-19 15:12:00,
2013-05-19 10:17:00,71.7,63.6,29.64,SSW,199,0.0,4.3,75,0.00,,,-99.99,Meteorologica,2013-05-19 15:17:00,
2013-05-19 10:22:00,72.2,63.4,29.64,SE,139,2.2,5.6,74,0.00,,,-99.99,Meteorologica,2013-05-19 15:22:00,
2013-05-19 10:27:00,72.5,63.4,29.64,South,176,4.7,7.6,72,0.00,,,-99.99,Meteorologica,2013-05-19 15:27:00,
2013-05-19 10:32:00,73.0,63.8,29.65,South,188,5.0,7.8,72,0.00,,,-99.99,Meteorologica,2013-05-19 15:32:00,
2013-05-19 10:37:00,73.5,64.4,29.65,SW,224,2.8,8.7,72,0.00,,,-99.99,Meteorologica,2013-05-19 15:37:00,
2013-05-19 10:42:00,73.9,64.3,29.65,SSW,207,3.4,8.4,71,0.00,,,-99.99,Meteorologica,2013-05-19 15:42:00,
2013-05-19 10:47:00,74.3,65.1,29.65,SE,141,3.0,8.0,72,0.00,,,-99.99,Meteorologica,2013-05-19 15:47:00,
2013-05-19 10:52:00,74.8,64.8,29.66,South,183,1.5,7.9,70,0.00,,,-99.99,Meteorologica,2013-05-19 15:52:00,
2013-05-19 10:57:00,75.3,64.8,29.66,SSE,154,5.6,10.6,69,0.00,,,-99.99,Meteorologica,2013-05-19 15:57:00,
2013-05-19 11:02:00,75.6,64.5,29.66,East,98,3.7,8.0,68,0.00,,,-99.99,Meteorologica,2013-05-19 16:02:00,
2013-05-19 11:07:00,75.9,64.7,29.66,SW,214,3.1,7.6,67,0.00,,,-99.99,Meteorologica,2013-05-19 16:07:00,
2013-05-19 11:12:00,76.4,64.4,29.66,South,178,5.3,9.5,65,0.00,,,-99.99,Meteorologica,2013-05-19 16:12:00,
2013-05-19 11:17:00,77.0,64.3,29.66,South,171,5.9,9.9,64,0.00,,,-99.99,Meteorologica,2013-05-19 16:17:00,
2013-05-19 11:22:00,77.0,63.7,29.66,SSW,213,4.8,10.0,63,0.00,,,-99.99,Meteorologica,2013-05-19 16:22:00,
2013-05-19 11:27:00,76.8,63.8,29.66,SSW,196,4.0,9.1,63,0.00,,,-99.99,Meteorologica,2013-05-19 16:27:00,
2013-05-19 11:32:00,76.7,64.4,29.66,SE,135,3.8,11.1,65,0.00,,,-99.99,Meteorologica,2013-05-19 16:32:00,
2013-05-19 11:37:00,76.9,64.2,29.66,SSW,204,6.4,9.5,64,0.00,,,-99.99,Meteorologica,2013-05-19 16:37:00,
2013-05-19 11:42:00,76.7,64.1,29.67,ESE,110,2.7,9.9,64,0.00,,,-99.99,Meteorologica,2013-05-19 16:42:00,
2013-05-19 11:47:00,76.8,63.6,29.66,SSE,162,2.6,7.7,63,0.00,,,-99.99,Meteorologica,2013-05-19 16:47:00,
2013-05-19 11:52:00,77.0,64.0,29.66,SSE,159,4.2,8.7,63,0.00,,,-99.99,Meteorologica,2013-05-19 16:52:00,
2013-05-19 11:57:00,77.2,63.1,29.66,SSW,199,2.1,7.5,61,0.00,,,-99.99,Meteorologica,2013-05-19 16:57:00,
2013-05-19 12:02:00,77.7,64.1,29.66,South,169,4.1,11.1,62,0.00,,,-99.99,Meteorologica,2013-05-19 17:02:00,
2013-05-19 12:07:00,77.4,62.9,29.67,SSW,201,5.9,9.4,60,0.00,,,-99.99,Meteorologica,2013-05-19 17:07:00,
2013-05-19 12:12:00,77.4,63.1,29.67,SW,215,5.6,9.6,60,0.00,,,-99.99,Meteorologica,2013-05-19 17:12:00,
2013-05-19 12:17:00,77.8,63.5,29.66,SSE,153,4.0,10.0,61,0.00,,,-99.99,Meteorologica,2013-05-19 17:17:00,
2013-05-19 12:22:00,78.3,64.4,29.66,South,174,2.5,8.7,61,0.00,,,-99.99,Meteorologica,2013-05-19 17:22:00,
2013-05-19 12:27:00,78.7,63.7,29.66,SSW,212,4.9,10.8,58,0.00,,,-99.99,Meteorologica,2013-05-19 17:27:00,
2013-05-19 12:32:00,78.9,63.8,29.66,SW,216,4.6,10.7,59,0.00,,,-99.99,Meteorologica,2013-05-19 17:32:00,
2013-05-19 12:37:00,78.9,63.3,29.66,West,266,6.5,10.8,58,0.00,,,-99.99,Meteorologica,2013-05-19 17:37:00,
2013-05-19 12:42:00,79.3,63.4,29.66,WSW,241,2.6,8.3,57,0.00,,,-99.99,Meteorologica,2013-05-19 17:42:00,
2013-05-19 12:47:00,79.9,63.6,29.65,WSW,243,5.3,9.4,57,0.00,,,-99.99,Meteorologica,2013-05-19 17:47:00,
2013-05-19 12:52:00,79.8,62.8,29.65,SW,216,3.4,8.4,55,0.00,,,-99.99,Meteorologica,2013-05-19 17:52:00,
2013-05-19 12:57:00,80.0,65.2,29.65,SE,128,1.4,5.6,60,0.00,,,-99.99,Meteorologica,2013-05-19 17:57:00,
2013-05-19 13:02:00,80.6,64.6,29.65,South,186,1.0,12.2,57,0.00,,,-99.99,Meteorologica,2013-05-19 18:02:00,
2013-05-19 13:07:00,80.9,63.6,29.65,WSW,257,0.5,6.7,55,0.00,,,-99.99,Meteorologica,2013-05-19 18:07:00,
2013-05-19 13:12:00,80.4,63.6,29.64,SW,227,6.3,12.5,56,0.00,,,-99.99,Meteorologica,2013-05-19 18:12:00,
2013-05-19 13:17:00,80.9,60.0,29.65,SSE,147,6.6,11.7,48,0.00,,,-99.99,Meteorologica,2013-05-19 18:17:00,
2013-05-19 13:22:00,81.1,61.6,29.65,SW,215,4.3,11.1,51,0.00,,,-99.99,Meteorologica,2013-05-19 18:22:00,
2013-05-19 13:27:00,80.7,61.9,29.63,SSW,208,4.8,10.7,52,0.00,,,-99.99,Meteorologica,2013-05-19 18:27:00,
2013-05-19 13:32:00,80.7,62.4,29.62,WSW,243,4.9,11.8,51,0.00,,,-99.99,Meteorologica,2013-05-19 18:32:00,
2013-05-19 13:37:00,80.2,62.1,29.63,ESE,119,5.2,9.9,53,0.00,,,-99.99,Meteorologica,2013-05-19 18:37:00,
2013-05-19 13:42:00,79.9,61.9,29.63,South,176,4.2,7.9,53,0.00,,,-99.99,Meteorologica,2013-05-19 18:42:00,
2013-05-19 13:47:00,79.3,62.2,29.63,SSE,148,0.0,6.4,55,0.00,,,-99.99,Meteorologica,2013-05-19 18:47:00,
2013-05-19 13:52:00,78.3,65.2,29.61,SSE,148,0.0,0.0,63,0.00,,,-99.99,Meteorologica,2013-05-19 18:52:00,
2013-05-19 13:57:00,76.4,66.9,29.64,West,280,1.2,5.4,72,0.00,,,-99.99,Meteorologica,2013-05-19 18:57:00,
2013-05-19 14:02:00,75.8,68.8,29.62,West,280,0.0,0.0,78,0.00,,,-99.99,Meteorologica,2013-05-19 19:02:00,
2013-05-19 14:07:00,76.1,67.8,29.62,West,280,0.0,0.0,75,0.00,,,-99.99,Meteorologica,2013-05-19 19:07:00,
2013-05-19 14:12:00,76.7,66.9,29.61,SSE,158,0.0,5.2,71,0.00,,,-99.99,Meteorologica,2013-05-19 19:12:00,
2013-05-19 14:17:00,77.7,65.6,29.61,SE,125,0.0,5.8,65,0.00,,,-99.99,Meteorologica,2013-05-19 19:17:00,
2013-05-19 14:22:00,78.7,66.3,29.60,SW,235,1.3,5.3,65,0.00,,,-99.99,Meteorologica,2013-05-19 19:22:00,
2013-05-19 14:27:00,79.3,64.7,29.60,WSW,247,0.0,0.0,60,0.00,,,-99.99,Meteorologica,2013-05-19 19:27:00,
2013-05-19 14:32:00,79.8,65.3,29.61,SE,129,3.3,9.5,60,0.00,,,-99.99,Meteorologica,2013-05-19 19:32:00,
2013-05-19 14:37:00,79.5,65.2,29.63,SSW,206,0.8,5.3,61,0.00,,,-99.99,Meteorologica,2013-05-19 19:37:00,
2013-05-19 14:42:00,79.3,64.3,29.63,SE,146,3.3,7.8,59,0.00,,,-99.99,Meteorologica,2013-05-19 19:42:00,
2013-05-19 14:47:00,78.9,64.7,29.64,SW,217,0.3,8.0,61,0.00,,,-99.99,Meteorologica,2013-05-19 19:47:00,
2013-05-19 14:52:00,78.5,65.2,29.64,SSW,194,0.0,4.2,63,0.00,,,-99.99,Meteorologica,2013-05-19 19:52:00,
2013-05-19 14:57:00,78.2,65.8,29.64,SSW,194,0.0,0.0,65,0.00,,,-99.99,Meteorologica,2013-05-19 19:57:00,
2013-05-19 15:02:00,77.9,66.8,29.62,SSW,194,0.0,1.9,68,0.00,,,-99.99,Meteorologica,2013-05-19 20:02:00,
2013-05-19 15:07:00,77.2,67.0,29.60,SE,127,0.0,0.0,70,0.00,,,-99.99,Meteorologica,2013-05-19 20:07:00,
2013-05-19 15:12:00,76.9,67.1,29.61,SE,127,0.0,0.0,71,0.00,,,-99.99,Meteorologica,2013-05-19 20:12:00,
2013-05-19 15:17:00,76.4,66.8,29.62,WSW,238,0.0,0.0,71,0.00,,,-99.99,Meteorologica,2013-05-19 20:17:00,
2013-05-19 15:22:00,76.4,67.3,29.65,SW,232,5.0,6.5,73,0.00,,,-99.99,Meteorologica,2013-05-19 20:22:00,
2013-05-19 15:27:00,76.2,67.1,29.65,SE,138,3.0,7.6,73,0.00,,,-99.99,Meteorologica,2013-05-19 20:27:00,
2013-05-19 15:32:00,76.0,67.2,29.63,WSW,237,2.1,7.4,74,0.00,,,-99.99,Meteorologica,2013-05-19 20:32:00,
2013-05-19 15:37:00,76.0,67.6,29.60,SE,131,0.0,0.0,75,0.00,,,-99.99,Meteorologica,2013-05-19 20:37:00,
2013-05-19 15:42:00,76.1,67.4,29.59,WSW,248,2.0,8.7,74,0.00,,,-99.99,Meteorologica,2013-05-19 20:42:00,
2013-05-19 15:47:00,76.4,68.3,29.59,South,189,4.2,8.9,75,0.00,,,-99.99,Meteorologica,2013-05-19 20:47:00,
2013-05-19 15:52:00,76.4,68.3,29.58,ENE,77,0.0,0.0,75,0.00,,,-99.99,Meteorologica,2013-05-19 20:52:00,
2013-05-19 15:57:00,76.5,68.1,29.57,ESE,112,0.0,0.0,75,0.00,,,-99.99,Meteorologica,2013-05-19 20:57:00,
2013-05-19 16:02:00,76.9,68.2,29.57,ESE,112,0.0,0.0,74,0.00,,,-99.99,Meteorologica,2013-05-19 21:02:00,
2013-05-19 16:07:00,77.4,67.9,29.57,WSW,244,3.9,5.9,72,0.00,,,-99.99,Meteorologica,2013-05-19 21:07:00,
2013-05-19 16:12:00,77.9,68.2,29.57,SW,224,3.3,6.7,71,0.00,,,-99.99,Meteorologica,2013-05-19 21:12:00,
2013-05-19 16:17:00,78.0,68.5,29.58,South,177,3.7,8.0,72,0.00,,,-99.99,Meteorologica,2013-05-19 21:17:00,
2013-05-19 16:22:00,77.7,68.5,29.59,WNW,283,4.0,9.7,73,0.00,,,-99.99,Meteorologica,2013-05-19 21:22:00,
2013-05-19 16:27:00,77.5,69.0,29.59,WNW,299,5.6,8.4,74,0.00,,,-99.99,Meteorologica,2013-05-19 21:27:00,
2013-05-19 16:32:00,77.9,69.5,29.58,West,277,5.4,7.3,75,0.00,,,-99.99,Meteorologica,2013-05-19 21:32:00,
2013-05-19 16:37:00,78.0,68.9,29.57,West,261,5.6,10.5,72,0.00,,,-99.99,Meteorologica,2013-05-19 21:37:00,
2013-05-19 16:42:00,78.1,68.5,29.55,NNW,345,2.4,6.9,73,0.00,,,-99.99,Meteorologica,2013-05-19 21:42:00,
2013-05-19 16:47:00,78.1,68.6,29.56,West,280,2.9,8.3,72,0.00,,,-99.99,Meteorologica,2013-05-19 21:47:00,
2013-05-19 16:52:00,77.7,68.1,29.57,West,280,4.7,9.3,71,0.00,,,-99.99,Meteorologica,2013-05-19 21:52:00,
2013-05-19 16:57:00,77.3,67.9,29.52,NW,316,0.0,0.0,72,0.00,,,-99.99,Meteorologica,2013-05-19 21:57:00,
2013-05-19 17:02:00,76.8,67.8,29.52,NW,316,0.0,0.0,73,0.00,,,-99.99,Meteorologica,2013-05-19 22:02:00,
2013-05-19 17:07:00,76.5,67.8,29.52,NW,316,0.0,0.0,74,0.00,,,-99.99,Meteorologica,2013-05-19 22:07:00,
2013-05-19 17:12:00,76.4,68.3,29.52,NW,316,0.0,0.0,75,0.00,,,-99.99,Meteorologica,2013-05-19 22:12:00,
2013-05-19 17:17:00,76.0,68.7,29.57,NW,316,0.0,0.0,77,0.00,,,-99.99,Meteorologica,2013-05-19 22:17:00,
2013-05-19 17:22:00,74.8,68.4,29.59,South,181,8.4,20.1,80,0.00,,,-99.99,Meteorologica,2013-05-19 22:22:00,
2013-05-19 17:27:00,70.5,64.7,29.61,SE,124,12.3,20.8,81,0.00,,,-99.99,Meteorologica,2013-05-19 22:27:00,
2013-05-19 17:32:00,68.0,64.3,29.59,East,86,5.4,14.3,88,0.00,,,-99.99,Meteorologica,2013-05-19 22:32:00,
2013-05-19 17:37:00,66.5,63.5,29.59,East,95,1.5,6.8,90,0.00,,,-99.99,Meteorologica,2013-05-19 22:37:00,
2013-05-19 17:42:00,65.7,62.9,29.62,West,280,4.7,5.3,90,0.00,,,-99.99,Meteorologica,2013-05-19 22:42:00,
2013-05-19 17:47:00,65.1,61.0,29.60,East,92,3.1,9.9,86,0.00,,,-99.99,Meteorologica,2013-05-19 22:47:00,
2013-05-19 17:52:00,64.9,61.4,29.57,NNE,15,3.6,6.6,88,0.00,,,-99.99,Meteorologica,2013-05-19 22:52:00,
2013-05-19 17:57:00,65.0,61.4,29.57,NNE,21,0.0,0.0,88,0.00,,,-99.99,Meteorologica,2013-05-19 22:57:00,
2013-05-19 18:02:00,65.2,60.8,29.57,ESE,112,4.3,13.5,85,0.00,,,-99.99,Meteorologica,2013-05-19 23:02:00,
2013-05-19 18:07:00,65.8,59.8,29.58,ESE,103,3.8,8.1,80,0.00,,,-99.99,Meteorologica,2013-05-19 23:07:00,
2013-05-19 18:12:00,66.7,59.8,29.58,SE,125,4.7,7.6,78,0.00,,,-99.99,Meteorologica,2013-05-19 23:12:00,
2013-05-19 18:17:00,66.9,60.5,29.58,SSE,155,5.2,8.2,79,0.00,,,-99.99,Meteorologica,2013-05-19 23:17:00,
2013-05-19 18:22:00,66.8,60.6,29.58,East,99,5.2,9.9,80,0.00,,,-99.99,Meteorologica,2013-05-19 23:22:00,
2013-05-19 18:27:00,66.6,59.1,29.59,SSE,156,7.1,11.2,76,0.00,,,-99.99,Meteorologica,2013-05-19 23:27:00,
2013-05-19 18:32:00,67.0,60.1,29.59,SSE,157,1.6,9.7,78,0.00,,,-99.99,Meteorologica,2013-05-19 23:32:00,
2013-05-19 18:37:00,67.0,59.9,29.61,SSE,158,5.4,8.7,77,0.00,,,-99.99,Meteorologica,2013-05-19 23:37:00,
2013-05-19 18:42:00,66.9,60.1,29.63,WSW,243,3.2,9.4,78,0.00,,,-99.99,Meteorologica,2013-05-19 23:42:00,
2013-05-19 18:47:00,66.4,60.7,29.64,West,277,2.8,5.5,81,0.00,,,-99.99,Meteorologica,2013-05-19 23:47:00,
2013-05-19 18:52:00,65.7,60.6,29.63,SSE,149,1.7,6.1,83,0.00,,,-99.99,Meteorologica,2013-05-19 23:52:00,
2013-05-19 18:57:00,64.7,60.5,29.56,SE,142,7.3,10.5,86,0.00,,,-99.99,Meteorologica,2013-05-19 23:57:00,
2013-05-19 19:02:00,64.5,59.8,29.54,ESE,121,7.5,9.7,83,0.00,,,-99.99,Meteorologica,2013-05-20 00:02:00,
2013-05-19 19:07:00,64.9,60.7,29.53,ESE,103,3.7,7.5,85,0.00,,,-99.99,Meteorologica,2013-05-20 00:07:00,
2013-05-19 19:12:00,64.5,59.7,29.50,SE,141,10.2,17.3,84,0.00,,,-99.99,Meteorologica,2013-05-20 00:12:00,
2013-05-19 19:17:00,64.2,60.6,29.50,ESE,115,5.3,19.0,88,0.00,,,-99.99,Meteorologica,2013-05-20 00:17:00,
2013-05-19 19:22:00,64.2,60.5,29.50,SSE,152,6.8,11.8,87,0.00,,,-99.99,Meteorologica,2013-05-20 00:22:00,
2013-05-19 19:27:00,64.3,60.7,29.52,ESE,119,5.7,10.3,88,0.00,,,-99.99,Meteorologica,2013-05-20 00:27:00,
2013-05-19 19:32:00,64.7,60.8,29.51,ESE,115,5.1,9.2,87,0.00,,,-99.99,Meteorologica,2013-05-20 00:32:00,
2013-05-19 19:37:00,65.0,60.6,29.52,North,9,4.8,9.2,85,0.00,,,-99.99,Meteorologica,2013-05-20 00:37:00,
2013-05-19 19:42:00,65.6,61.1,29.52,ESE,103,4.0,8.4,85,0.00,,,-99.99,Meteorologica,2013-05-20 00:42:00,
2013-05-19 19:47:00,65.8,61.3,29.54,ESE,118,3.6,7.4,85,0.00,,,-99.99,Meteorologica,2013-05-20 00:47:00,
2013-05-19 19:52:00,65.6,61.3,29.56,SSW,206,8.1,10.8,85,0.00,,,-99.99,Meteorologica,2013-05-20 00:52:00,
2013-05-19 19:57:00,65.2,61.4,29.57,SSE,165,8.5,12.7,87,0.00,,,-99.99,Meteorologica,2013-05-20 00:57:00,
2013-05-19 20:02:00,65.0,61.3,29.57,SSW,206,5.2,11.5,87,0.00,,,-99.99,Meteorologica,2013-05-20 01:02:00,
2013-05-19 20:07:00,65.0,61.3,29.57,SSE,160,6.0,10.2,88,0.00,,,-99.99,Meteorologica,2013-05-20 01:07:00,
2013-05-19 20:12:00,65.0,61.4,29.58,SSE,153,3.7,9.9,88,0.00,,,-99.99,Meteorologica,2013-05-20 01:12:00,
2013-05-19 20:17:00,64.9,61.4,29.58,SW,219,5.4,8.6,88,0.00,,,-99.99,Meteorologica,2013-05-20 01:17:00,
2013-05-19 20:22:00,64.9,61.6,29.58,SSE,147,2.7,8.4,89,0.00,,,-99.99,Meteorologica,2013-05-20 01:22:00,
2013-05-19 20:27:00,64.8,61.6,29.58,SE,144,3.2,6.9,89,0.00,,,-99.99,Meteorologica,2013-05-20 01:27:00,
2013-05-19 20:32:00,64.8,61.7,29.57,SE,138,4.0,10.5,89,0.00,,,-99.99,Meteorologica,2013-05-20 01:32:00,
2013-05-19 20:37:00,64.8,61.6,29.57,East,101,1.2,7.5,89,0.00,,,-99.99,Meteorologica,2013-05-20 01:37:00,
2013-05-19 20:42:00,64.7,61.4,29.58,ESE,119,6.2,9.8,89,0.00,,,-99.99,Meteorologica,2013-05-20 01:42:00,
2013-05-19 20:47:00,64.8,61.3,29.59,SSE,159,5.1,8.6,88,0.00,,,-99.99,Meteorologica,2013-05-20 01:47:00,
2013-05-19 20:52:00,64.5,61.0,29.59,SSW,210,4.6,9.2,88,0.00,,,-99.99,Meteorologica,2013-05-20 01:52:00,
2013-05-19 20:57:00,64.5,61.0,29.59,SSW,199,6.5,9.6,88,0.00,,,-99.99,Meteorologica,2013-05-20 01:57:00,
2013-05-19 21:02:00,64.6,31.6,29.58,SW,215,1.7,6.9,29,0.00,,,-99.99,Meteorologica,2013-05-20 02:02:00,
2013-05-19 21:07:00,64.5,61.1,29.59,South,189,1.0,6.8,88,0.00,,,-99.99,Meteorologica,2013-05-20 02:07:00,
2013-05-19 21:12:00,64.3,61.1,29.62,WSW,247,4.8,11.0,89,0.00,,,-99.99,Meteorologica,2013-05-20 02:12:00,
2013-05-19 21:17:00,64.1,61.2,29.64,West,263,4.3,6.9,90,0.00,,,-99.99,Meteorologica,2013-05-20 02:17:00,
2013-05-19 21:22:00,63.9,61.2,29.65,WNW,282,4.1,9.7,90,0.00,,,-99.99,Meteorologica,2013-05-20 02:22:00,
2013-05-19 21:27:00,64.1,61.5,29.65,NW,321,4.3,9.2,91,0.00,,,-99.99,Meteorologica,2013-05-20 02:27:00,
2013-05-19 21:32:00,64.1,61.4,29.64,SW,225,3.9,5.9,91,0.00,,,-99.99,Meteorologica,2013-05-20 02:32:00,
2013-05-19 21:37:00,64.1,61.4,29.64,WSW,239,0.6,5.3,90,0.00,,,-99.99,Meteorologica,2013-05-20 02:37:00,
2013-05-19 21:42:00,64.2,61.5,29.64,South,190,0.6,9.3,91,0.00,,,-99.99,Meteorologica,2013-05-20 02:42:00,
2013-05-19 21:47:00,64.1,61.6,29.63,East,91,0.0,3.3,91,0.00,,,-99.99,Meteorologica,2013-05-20 02:47:00,
2013-05-19 21:52:00,64.1,61.7,29.64,SSE,155,1.1,7.3,92,0.00,,,-99.99,Meteorologica,2013-05-20 02:52:00,
2013-05-19 21:57:00,64.0,61.6,29.64,SSE,155,0.0,0.0,91,0.00,,,-99.99,Meteorologica,2013-05-20 02:57:00,
2013-05-19 22:02:00,63.7,61.0,29.60,NE,50,5.6,13.9,90,0.00,,,-99.99,Meteorologica,2013-05-20 03:02:00,
2013-05-19 22:07:00,63.3,60.7,29.61,South,190,4.5,9.6,91,0.00,,,-99.99,Meteorologica,2013-05-20 03:07:00,
2013-05-19 22:12:00,63.1,60.1,29.64,SSW,212,6.0,9.5,90,0.00,,,-99.99,Meteorologica,2013-05-20 03:12:00,
2013-05-19 22:17:00,62.9,59.9,29.65,SW,216,5.6,9.2,90,0.00,,,-99.99,Meteorologica,2013-05-20 03:17:00,
2013-05-19 22:22:00,62.7,59.8,29.64,South,189,3.0,7.6,90,0.00,,,-99.99,Meteorologica,2013-05-20 03:22:00,
2013-05-19 22:27:00,62.4,59.5,29.63,West,259,0.0,3.1,90,0.00,,,-99.99,Meteorologica,2013-05-20 03:27:00,
2013-05-19 22:32:00,62.3,59.6,29.61,East,95,0.0,2.5,90,0.00,,,-99.99,Meteorologica,2013-05-20 03:32:00,
2013-05-19 22:37:00,62.0,59.4,29.59,WSW,244,0.0,3.5,91,0.00,,,-99.99,Meteorologica,2013-05-20 03:37:00,
2013-05-19 22:42:00,61.8,59.2,29.59,WSW,244,0.0,0.0,91,0.00,,,-99.99,Meteorologica,2013-05-20 03:42:00,
2013-05-19 22:47:00,61.6,59.1,29.58,WSW,244,0.0,0.0,91,0.00,,,-99.99,Meteorologica,2013-05-20 03:47:00,
2013-05-19 22:52:00,61.5,59.1,29.63,WNW,285,5.7,7.0,91,0.00,,,-99.99,Meteorologica,2013-05-20 03:52:00,
2013-05-19 22:57:00,61.3,58.9,29.63,NW,326,3.4,7.1,91,0.00,,,-99.99,Meteorologica,2013-05-20 03:57:00,
2013-05-19 23:02:00,61.2,58.6,29.62,WNW,287,4.3,6.4,91,0.00,,,-99.99,Meteorologica,2013-05-20 04:02:00,
2013-05-19 23:03:00,61.2,58.6,29.63,NW,310,4.0,6.4,91,0.00,,,-99.99,Meteorologica,2013-05-20 04:03:00,
2013-05-19 23:05:00,61.2,58.6,29.63,West,267,3.7,7.4,91,0.00,,,-99.99,Meteorologica,2013-05-20 04:05:00,
2013-05-19 23:07:00,61.2,58.5,29.62,WNW,283,0.9,7.4,91,0.00,,,-99.99,Meteorologica,2013-05-20 04:07:00,
2013-05-19 23:08:00,61.2,58.6,29.62,WNW,283,0.0,7.4,91,0.00,,,-99.99,Meteorologica,2013-05-20 04:08:00,
2013-05-19 23:13:00,61.3,58.6,29.61,SSW,196,1.4,4.7,90,0.00,,,-99.99,Meteorologica,2013-05-20 04:13:00,
2013-05-19 23:18:00,61.2,58.3,29.60,WSW,238,1.7,3.1,90,0.00,,,-99.99,Meteorologica,2013-05-20 04:18:00,
2013-05-19 23:23:00,61.2,58.2,29.61,West,275,0.0,0.0,90,0.00,,,-99.99,Meteorologica,2013-05-20 04:23:00,
2013-05-19 23:28:00,61.2,58.0,29.61,WNW,284,0.0,5.6,89,0.00,,,-99.99,Meteorologica,2013-05-20 04:28:00,
2013-05-19 23:33:00,61.1,57.9,29.61,NW,304,5.5,7.5,89,0.00,,,-99.99,Meteorologica,2013-05-20 04:33:00,
2013-05-19 23:38:00,61.0,57.6,29.61,WNW,298,6.3,10.8,88,0.00,,,-99.99,Meteorologica,2013-05-20 04:38:00,
2013-05-19 23:43:00,61.0,57.7,29.61,West,260,4.6,7.8,88,0.00,,,-99.99,Meteorologica,2013-05-20 04:43:00,
2013-05-19 23:48:00,60.9,57.4,29.62,NW,316,6.5,9.4,88,0.00,,,-99.99,Meteorologica,2013-05-20 04:48:00,
2013-05-19 23:53:00,60.9,57.5,29.63,South,180,1.8,6.0,88,0.00,,,-99.99,Meteorologica,2013-05-20 04:53:00,
2013-05-19 23:58:00,61.0,57.5,29.63,West,261,0.0,3.5,88,0.00,,,-99.99,Meteorologica,2013-05-20 04:58:00,